Location: Unspecified
(0.0000°N, 0.0000°E)
Time: 12:03:41
(UTC+00:00)

RS-15 - Pass Details

Date: 13 December 2017
Orbit: 1889 x 2156 km, 64.8° (Epoch: 25 April)

Event Time Altitude Azimuth Distance (km) Brightness Sun altitude
Exits shadow 00:31:58 12° 118° (ESE) 4,122 9.9 -65.1°
Drops below altitude 10° 00:32:40 10° 120° (ESE) 4,280 10.0 -65.0°
Sets 00:36:37 0° 132° (SE) 5,269 10.6 -64.6°
